STARLINK-32589 (62183 NORAD) Tracking and Keplerian Element Data

This shows tracking and keplerian element data for the satellite.

Feedback or suggestion? Click here.




ElementValue
Catalog62183
NameSTARLINK-32589
Epoch Orbit582
Epoch Day34.83335648
Epoch Year2025
RAAN90.5268
Inclination69.9993
Eccentricity0.0003061
Argument of Perigee273.89
Mean Anonmoly313.9197
Mean Motion15.15628263
Decay Rate-0.01556218
L11 62183U 24225W 25034.83335648 -.01556218 00000+0 -89761-1 0 9990
L22 62183 69.9993 90.5268 0003061 273.8900 313.9197 15.15628263 5823



Live tracking and technical data element details for STARLINK-32589 (NORAD 62183). STARLINK-32589 can be tracked NOW for your location showing map with azimuth and elevation plus other details from your city location.







IsCatalogInMostPopularTable: catalog: 62183, numindb: 14
Update: records affected: 1



GetName: 62183 STARLINK-32589

Hit Count: updated at: Mon, 19 May 2025 02:52:49 GMT